Regional Weather Roundup
Issued by NWS San Angelo, TX

Home | Current Version | Previous Version | Text Only | Print | Product List | Glossary On
Versions: 1 2 3 4 5 6 7 8 9 10 11 12 13 14 15 16 17 18 19 20 21 22 23 24 25 26 27 28 29 30 31 32 33 34 35 36 37 38 39 40 41 42 43 44 45 46 47 48 49 50
895
ASUS44 KSJT 121311
RWRSJT
WEST CENTRAL TEXAS REGIONAL WEATHER ROUNDUP
NATIONAL WEATHER SERVICE SAN ANGELO TX
700 AM CST FRI FEB 12 2016

NOTE: "FAIR" INDICATES FEW OR NO CLOUDS BELOW 12,000 FEET WITH NO
SIGNIFICANT WEATHER AND/OR OBSTRUCTIONS TO VISIBILITY.

TXZ049-054-064>066-071>073-076>078-098-099-113-114-127-128-139-140-
154-155-168>170-121400
...LOCATIONS ACROSS WEST CENTRAL TEXAS...

CITY           SKY/WX    TMP DP  RH WIND       PRES   REMARKS
SAN ANGELO     CLOUDY    33  24  69 SW5       30.24R WCI  29
ABILENE        CLOUDY    40  32  73 N3        30.24R
DYESS AFB      CLOUDY    37  30  76 N2        30.23R
JUNCTION       CLOUDY    34  26  72 W3        30.21R
SWEETWATER     CLOUDY    47  32  55 N6        30.26R
BROWNWOOD      PTCLDY    36  30  80 CALM      30.23R
COLEMAN        CLOUDY    43  32  64 NW3       30.24R
SONORA         CLOUDY    30  25  80 N5        30.26R WCI  25
OZONA          FAIR      32  23  69 CALM      30.26R
BRADY          NOT AVBL
$$

TEXAS PANHANDLE/OKLAHOMA PANHANDLE

CITY           SKY/WX    TMP DP  RH WIND       PRES   REMARKS
AMARILLO       CLOUDY    33  25  72 NW8       30.30R WCI  26
BORGER         CLOUDY    36  26  67 NW3       30.30R
CANADIAN       CLOUDY    29  26  89 CALM      30.30R
DALHART        CLOUDY    33  23  66 NW7       30.32R WCI  27
DUMAS          CLOUDY    30  24  77 N8        30.30S WCI  23
GUYMON         NOT AVBL
HEREFORD       NOT AVBL
PAMPA          CLOUDY    32  26  78 NW6       30.30R WCI  26
PERRYTON       CLOUDY    33  28  83 NW10      30.30R WCI  25
$$

SOUTHERN PANHANDLE/SOUTH PLAINS/ROLLING PLAINS

CITY           SKY/WX    TMP DP  RH WIND       PRES   REMARKS
LUBBOCK        CLOUDY    29  21  72 NW6       30.26R WCI  23
SNYDER           N/A     38  30  70 N7        30.26R WCI  33
CHILDRESS      CLOUDY    35  28  75 NW6       30.26R WCI  30
SEMINOLE       CLOUDY    32  24  73 N5        30.27R WCI  27
$$

PERMIAN BASIN

CITY           SKY/WX    TMP DP  RH WIND       PRES   REMARKS
MIDLAND        CLOUDY    35  27  72 N5        30.24R WCI  31
ODESSA         CLOUDY    37  25  61 NE12      30.25R WCI  29
WINK           CLOUDY    30  22  72 N9        30.23R WCI  22
$$

FAR WEST/SOUTHWEST MOUNTAINS/TRANS PECOS

CITY           SKY/WX    TMP DP  RH WIND       PRES   REMARKS
ALPINE         CLOUDY    35  17  49 SW6       30.35R WCI  30
DRYDEN           N/A     44  20  38 W8        30.21R WCI  39
EL PASO        MOCLDY    34  16  47 NE3       30.29R
FORT STOCKTON  CLOUDY    47  23  38 SW14      30.23R
GUADALUPE PASS CLOUDY    50  13  22 S8        30.32R
MARFA          CLOUDY    25  13  60 N10       30.33R WCI  15
PECOS          CLOUDY    30  20  65 W3        30.26R
$$

DALLAS/FORT WORTH METROPLEX

CITY           SKY/WX    TMP DP  RH WIND       PRES   REMARKS
DFW AIRPORT    PTCLDY    42  35  76 N9        30.21R WCI  37
FTW MEACHAM    CLEAR     43  34  70 N9        30.22R WCI  38
DAL-EXECUTIVE  CLEAR     45  36  70 NE6       30.21R
GRAND PRAIRIE  NOT AVBL
ADDISON        NOT AVBL
MESQUITE       SUNNY     45  36  70 N8        30.22R
LANCASTER      SUNNY     43  34  72 N3        30.22R
$$

NORTH CENTRAL TEXAS

CITY           SKY/WX    TMP DP  RH WIND       PRES   REMARKS
SHRMAN/DENISON SUNNY     40  32  73 E5        30.24S WCI  37
GAINESVILLE    CLEAR     38  31  76 N6        30.26R WCI  33
BRIDGEPORT     SUNNY     36  34  94 CALM      30.25R
DENTON         CLEAR     38  32  79 NW6       30.23R WCI  33
WAXAHACHIE     SUNNY     45  39  79 N8        30.22R
GRANBURY       SUNNY     43  33  68 CALM      30.25R
$$

WESTERN NORTH TEXAS

CITY           SKY/WX    TMP DP  RH WIND       PRES   REMARKS
WICHITA FALLS  CLEAR     37  30  75 NW8       30.25R WCI  31
VERNON         SUNNY     36  29  75 CALM      30.27R
BRECKENRIDGE   SUNNY     36  32  85 CALM      30.24R
COMANCHE       CLEAR     45  34  66 NW8       30.22R
$$

CENTRAL AND SOUTH CENTRAL TEXAS

CITY           SKY/WX    TMP DP  RH WIND       PRES   REMARKS
AUSTIN/BERGSTM CLEAR     37  37 100 CALM      30.20R
WACO           CLEAR     42  36  79 NW7       30.19R WCI  38
HILLSBORO      SUNNY     42  33  71 N6        30.19R WCI  38
TEMPLE         CLEAR     44  39  82 W7        30.19R
KILLEEN-GRAY   NOT AVBL
FORT HOOD      CLEAR     47  35  64 NW7       30.18R
GEORGETOWN     CLEAR     43  37  81 NW5       30.19R
LAGO VISTA     FAIR      54  39  55 CALM      30.19R
SAN MARCOS     CLEAR     39  36  87 CALM      30.21R
NEW BRAUNFELS  CLEAR     42  40  92 W3        30.19R
RANDOLPH AFB   CLEAR     43  43 100 NW3       30.20R FOG
SAN ANTONIO    CLEAR     43  40  89 NW5       30.19R
STINSON        CLEAR     45  40  82 CALM      30.18R
PLEASANTON     NOT AVBL
LA GRANGE      FOG       48  48  99 CALM      30.19R VSB 1/4
GIDDINGS       SUNNY     51  50  98 CALM      30.24R FOG
$$

EAST TEXAS

CITY           SKY/WX    TMP DP  RH WIND       PRES   REMARKS
PARIS          CLEAR     36  23  60 NE6       30.23R WCI  31
CLARKSVILLE    NOT AVBL
TYLER          CLEAR     45  37  73 NE6       30.20R
LONGVIEW       CLEAR     41  36  82 N5        30.21R WCI  38
PALESTINE      FOG       50  50 100 CALM      30.19R VSB 1
NACOGDOCHES    CLEAR     41  39  93 CALM      30.19S
$$

TEXAS HILL COUNTRY AND EDWARDS PLATEAU

CITY           SKY/WX    TMP DP  RH WIND       PRES   REMARKS
LLANO          SUNNY     36  32  87 CALM      30.24R
HORSESHOE BAY  FAIR      46  42  83 CALM      30.20R
KERRVILLE      CLEAR     37  33  85 NW5       30.20R WCI  33
FREDERICKSBRG  CLEAR     38  31  78 CALM      30.21R
ROCKSPRINGS    SUNNY     52  32  46 SE5       30.22R
HONDO          CLEAR     37  29  72 N7        30.21R WCI  32
UVALDE         SUNNY     41  34  76 CALM      30.20R
DEL RIO        CLEAR     44  33  65 N3        30.18R
$$

SOUTHEAST TEXAS

CITY           SKY/WX    TMP DP  RH WIND       PRES   REMARKS
COLLEGE STN    FOG       51  51 100 SW3       30.22R VSB 1/4
CALDWELL       FOG       45  45 100 CALM      30.24R VSB 1/4
CROCKETT       FOG       46  46 100 S5        30.22R VSB 1/2
BRENHAM        CLOUDY    58  57  99 SW5       30.22R FOG
HUNTSVILLE     CLEAR     58  55  90 SW6       30.21R
CONROE         FOG       57  55  93 SW8       30.21R VSB 1/2
HOUSTON BUSH   CLEAR     57  55  93 CALM      30.21R
HOUSTON HOBBY  FOG       51  50  96 CALM      30.21R VSB 1/4
PERLAND        FOG       50  49  96 CALM      30.23R VSB 1/2
WHARTON        FOG       49  48  96 CALM      30.22R VSB 1/4
$$

THE UPPER TEXAS COAST

CITY           SKY/WX    TMP DP  RH WIND       PRES   REMARKS
ORANGE         SUNNY     58  55  89 CALM      30.24R
PORT ARTHUR    FOG       51  50  96 CALM      30.22R VSB 1/4
GALVESTON      PTCLDY    58  58 100 CALM      30.23R
ANGLETON       FOG       50  49  96 S3        30.21R VSB 1/2
BAY CITY       FOG       51  51 100 CALM      30.21R VSB 1/2
$$

TEXAS COASTAL BEND, RIO GRANDE PLAINS DEEP SOUTH TEXAS

CITY           SKY/WX    TMP DP  RH WIND       PRES   REMARKS
VICTORIA       FOG       55  55 100 S3        30.21R VSB 1/4
BEEVILLE       DRZL/FOG  46  46 100 SE5       30.19R VSB 1/4
ROCKPORT       PTCLDY    58  55  90 S3        30.20R FOG
PORT ARANSAS   SUNNY     59  59 100 S3        30.20R
PORT LAVACA    FOG       50  50 100 S5        30.21R VSB 1/4
CORPUS CHRISTI FOG       52  51  97 SE8       30.19R VSB 1/4
KINGSVILLE NAS FOG       45  45 100 E6        30.19R VSB 1/4
COTULLA        CLEAR     47  43  86 NE3       30.19R
LAREDO         CLEAR     51  50  96 CALM      30.17R
BROWNSVILLE    FOG       54  54 100 SE6       30.20R VSB 1/2
PORT ISABEL    PTCLDY    56  56 100 S6        30.19R
HEBBRONVILLE   NOT AVBL
MCALLEN        PTCLDY    56  52  86 SE7       30.18R
WESLACO        PTCLDY    58  55  89 S8        30.17R
FALFURRIAS     CLOUDY    51  49  95 CALM      30.18R VSB 1/2
EDINBURG       SUNNY     59  56  88 CALM      30.18R
$$




USA.gov is the U.S. government's official web portal to all federal, state and local government web resources and services.